Retour au catalogue

GALAXY 18

ActifCommunicationsGEO
NORAD 32951·PAYLOAD·🇺🇸 United States

Lancé May 21, 2008 depuis Sea Launch Platform

Loading…

TLE

FraisSource: CelesTrak SupGP

Époque: Sep 14, 2026, 00:00 UTC

1 32951C 08024A   26257.00000000  .00000116  00000+0  00000+0 0  2579
2 32951   0.0010 169.6261 0002983   6.3297  54.0316  1.00272121    19

Suivez GALAXY 18 en temps réel avec AllMySat

Download on the App Store